Terminal Aerodrome Forecast
Issued by NWS Charleston, WV

Current Version | Previous Version | Text Only | Print | Product List | Glossary Off
Versions: 1 2 3 4 5 6 7 8 9 10 11 12 13 14 15 16 17 18 19 20 21 22 23 24 25 26 27 28 29 30

000
FTUS41 KRLX 251500 AAA
TAFBKW
TAF AMD
KBKW 251502Z 2515/2612 15012G17KT P6SM SCT120
     FM251900 17009G16KT P6SM SCT025
     FM260000 15007KT P6SM BKN025
     FM261000 18009G14KT P6SM BKN015=

USA.gov is the U.S. government's official web portal to all federal, state and local government web resources and services.